THORAD DELTA 1 DEB, 8405

Orbit data source: Space-Track

THORAD DELTA 1 DEB, 8405 is space debris in LEO originally from a launch on Fri, 15 Nov 1974 UTC launched from the Air Force Western Test Range (AFWTR). Debris objects in space refer to the collection of defunct objects orbiting the Earth. Examples of debris include non-operational satellites, rocket bodies, and fragments generated from explosions, collisions, or faulty payload assembly.

Loading next visibility...
Identifier
8405, 1974-089CH
Orbit
LEO
Country
Flag of USUS
Related business
Manufacturer
Unknown
Mission
Spacecraft
Bus & Motor
Unknown
Mass
Unknown
Launch date (UTC)
1974-11-15 (52 years ago)
Launch vehicle
Unknown
Launch site
Air Force Western Test Range (AFWTR)
Object type
Payload
Rocket body
Debris
Shape & HBR
Unknown shape, 0.1 m
Radar Cross Section
Small (<0.1 m²)

Expand to show TLE details & history
Last TLE update: 18 hours ago

TLE from 18 hours ago
0 THORAD DELTA 1 DEB
1 08405U 74089CH  26145.14375157  .00000257  00000-0  48907-2 0  9990
2 08405 102.7288  48.7691 0685842 196.2689 161.5251 11.30535629128250
Epoch: 2026-05-25T03:27Z
TLE epoch observation values (Epoch: 2026-05-25T03:27:00.135Z)
Latitude
-0.00003°
Longitude
114.28278°
Altitude
2,559.234 km
Speed
6.457 km/s
True Right ascension
03h 15m 04s
True Declination
0° 00' 00"
Sunlit
Object was in daylight at epoch
Visualization orbit readout
Latitude
Unknown
Longitude
Unknown
Altitude
Unknown
Speed
Unknown
Apparent Right ascension
Unknown
Apparent Declination
Unknown
Sunlit
N/A
Visualization observer readout
Local Sidereal Time
07:09:23
Azimuth
Unknown
Elevation
Unknown
Doppler factor
Unknown
Orbital elements
Apogee altitude
2,580.412 km
Perigee altitude
1,430.451 km
Semi-major axis
8,383.569 km
Eccentricity
0.06858
Inclination
102.7288°
RAAN
48.7691°
Arg. of periapsis
196.2689°
True anomaly
163.8272°
Mean anomaly
161.5251°
Eccentric anomaly
162.69405°
Mean motion
2.82748 °/min
Orbital period
127.32 mins
BSTAR
0.0048907
Loading maneuver chart data...
Computing Atmospheric mass density...

Documentation

Showing up to 5 results
|